Regional Weather Roundup
Issued by NWS

Home | Current Version | Previous Version | Text Only | Print | Product List | Glossary Off
Versions: 1 2 3 4 5 6 7 8 9 10 11 12 13 14 15 16 17 18 19 20 21 22 23 24 25 26 27 28 29 30 31 32 33 34 35 36 37 38 39 40 41 42 43 44 45 46 47 48 49 50

000
ASUS45 KABQ 011501
RWRNM
NEW MEXICO REGIONAL WEATHER ROUNDUP
NATIONAL WEATHER SERVICE ALBUQUERQUE NM
900 AM MDT SAT AUG 01 2015

NOTE: "FAIR" MEANS FEW OR NO CLOUDS BELOW 12,000 FEET AGL WITH NO
       SIGNIFICANT WEATHER OR OBSTRUCTIONS TO VISION.

      THIS PRODUCT IS RELEASED AS TWO VERSIONS.  ONE VERSION NEAR
      THE TOP OF THE HOUR CONTAINING PRELIMINARY DATA FROM ALBUQUERQUE
      AND OTHER STATIONS.  A FINAL VERSION WITH ADDITIONAL DATA IS
      ISSUED ABOUT 10 MINUTES AFTER THE HOUR.

NMZ501-503-504-510>518-011600-
NORTHWEST PLATEAU/NORTHCENTRAL MOUNTAINS

CITY           SKY/WX    TMP DP  RH WIND       PRES   REMARKS
FARMINGTON     PTSUNNY   66  60  81 CALM      30.28R
SANTA FE       MOSUNNY   71  57  61 VRB3      30.34F
TAOS           CLOUDY    63  48  59 E5        30.42S

$$
NMZ402-403-502-505>509-011600-
WESTCENTRAL MOUNTAINS/SOUTHWEST MOUNTAINS

CITY           SKY/WX    TMP DP  RH WIND       PRES   REMARKS
GALLUP         MOSUNNY   68  59  73 E3        30.33F
SILVER CITY      N/A     77  54  44 E12       30.28R

$$
NMZ407-409-411-412-011600-
SOUTHERN DESERTS

CITY           SKY/WX    TMP DP  RH WIND       PRES   REMARKS
DEMING         SUNNY     79  58  48 NE14      30.18R
HOLLOMAN AFB   SUNNY     80  56  44 VRB2      30.17S
ALAMOGORDO     SUNNY     75  59  57 S3        30.20S
T OR C         PTSUNNY   72  60  66 NW3       30.24R

$$
NMZ519>523-011600-
CENTRAL VALLEYS/CENTRAL HIGHLANDS

CITY           SKY/WX    TMP DP  RH WIND       PRES   REMARKS
ALBUQUERQUE    PTSUNNY   71  59  65 NW7       30.29S
DOUBLE EAGLE   MOSUNNY   70  57  64 CALM      30.33S
MORIARTY ARPT    N/A     68  57  67 N7        30.35S
CLINES CORNERS MOSUNNY   69  55  60 NW12      30.37R
BELEN          FAIR      73  58  59 CALM      30.28R
SOCORRO        NOT AVBL

$$
NMZ524>526-539-540-011600-
SOUTHCENTRAL MOUNTAINS

CITY           SKY/WX    TMP DP  RH WIND       PRES   REMARKS
RUIDOSO          N/A    N/A N/A N/A MISG        N/A

$$
NMZ527>531-011600-
NORTHEAST HIGHLANDS/NORTHEAST PLAINS

CITY           SKY/WX    TMP DP  RH WIND       PRES   REMARKS
LAS VEGAS      SUNNY     68  56  65 VRB3      30.35S
RATON          MOSUNNY   67  60  78 CALM      30.30S
CLAYTON        SUNNY     73  63  70 SW14      30.21R

$$
NMZ532>537-011600-
EASTCENTRAL PLAINS

CITY           SKY/WX    TMP DP  RH WIND       PRES   REMARKS
TUCUMCARI      MOSUNNY   73  65  75 SW9       30.18F
CANNON AFB     PTSUNNY   69  66  91 SE13      30.23R
CLOVIS AIRPORT CLOUDY    70  64  83 S9        30.24R

$$
NMZ028-029-538-011600-
SOUTHEAST PLAINS

CITY           SKY/WX    TMP DP  RH WIND       PRES   REMARKS
ROSWELL        SUNNY     80  65  59 NE8       30.18R
ARTESIA        SUNNY     79  64  61 VRB5      30.18S
CARLSBAD       SUNNY     83  62  49 NW9       30.15R
HOBBS          SUNNY     77  64  65 NE7       30.19S


$$


USA.gov is the U.S. government's official web portal to all federal, state and local government web resources and services.